SCP
0 0 0 0 0 1 0 0 0 0 0 0 0 0 0 0 0 0 0 0 0 0 0 0 0 0 0 0 0 0 0 0 0 0 0 0 0 0 0 0 0 0 0 0
0 0 0 0 0 0 0 0 0 0 0 0 0 0 0 0 0 0 0 0 0 0 0 0 0 0 0 0 0 0 0 0 0 0 0 0 0 0 0 0 0 0 0 0
0 0 0 0 0 0 0 0 0 0 0 0 0 0 0 0 0 0 0 0 0 0 0 0 0 0 0 0 0 0 0 0 0 0 0 0 0 0 0 0 0 0 0 0
0 0 0 0 0 0 0 0 0 0 0 0 0 0 0 0 0 0 0 0 0 0 0 0 0 0 0 0 0 0 0 0 0 0 0 0 0 0 0 0 0 0 0 0
0 0 0 0 0 0 0 0 0 0 0 0 0 0 0 0 0 0 0 0 0 0 0 0 0 0 0 0 0 0 0 0 0 0 0 0 0 0 0 0 0 0 0 0
0 0 0 0 0 0 0 0 0 0 0 0 0 0 0 0 0 0 0 0 0 0 0 0 0 0 0 0 0 0 0 0 0 0 0 0 0 0 0 0 0 0 0 0
0 0 0 0 0 0 0 0 0 0 0 0 0 0 0 0 0 0 0 0 0 0 0 0 0 0 0 0 0 0 0 0 0 0 0 0 0 0 0 0 0 0 0 0
0 0 0 0 0 0 0 0 0 0 0 0 0 0 0 0 0 0 0 0 0 0 0 0 0 0 0 0 0 0 0 0 0 0 0 0 0 0 0 0 0 0 0 0
0 0 0 0 0 0 0 0 0 0 0 0 0 0 0 0 0 0 0 0 0 0 0 0 0 0 0 0 0 0 0 0 0 0 0 0 0 0 0 0 0 0 0 0
0 0 0 0 0 0 0 0 0 0 0 0 0 0 0 0 0 0 0 0 0 0 0 0 0 0 0 0 0 0 0 0 0 0 0 0 0 0 0 0 0 0 0 0
0 0 0 0 0 0 0 0 0 0 0 0 0 0 0 0 0 0 0 0 0 0 0 0 0 0 0 0 0 0 0 0 0 0 0 0 0 0 0 0 0 0 0 0
0 0 0 0 0 0 0 0 0 0 0 0 0 0 0 0 0 0 0 0 0 0 0 0 0 0 0 0 0 0 0 0 0 0 0 0 0 0 0 0 0 0 0 0
0 0 0 0 0 0 0 0 0 0 0 0 0 0 0 0 0 0 0 0 0 0 0 0 0 0 0 0 0 0 0 0 0 0 0 0 0 0 0 0 -0 0 0 0
0 0 0 0 0 0 0 0 0 0 0 0 0 0 0 0 0 0 0 0 0 0 0 0 0 0 0 0 0 0 0 0 0 0 0 0 0 0 0 0 0 0 0 0
0 0 0 0 0 0 0 0 0 0 0 0 0 0 0 0 0 0 0 0 0 0 0 0 0 0 0 0 0 0 0 0 0 0 0 0 0 0 0 0 0 0 0 0
0 0 0 0 0 0 0 0 0 0 0 0 0 0 0 0 0 0 0 0 0 0 0 0 0 0 0 0 0 0 0 0 0 0 0 0 0 0 0 0 0 0 0 0
0 0 0 0 0 0 0 0 0 0 0 0 0 0 0 0 0 0 0 0 0 0 0 0 0 0 0 0 0 0 0 0 0 0 0 0 0 0 0 0 0 0 0 0
0 0 0 0 0 0 0 0 0 0 0 0 0 0 0 0 0 0 0 0 0 0 0 0 0 0 0 0 0 0 0 0 0 0 0 0 0 0 0 0 0 0 0 0
0 0 0 0 0 0 0 0 0 0 0 0 0 0 0 0 0 0 0 0 0 0 0 0 0 0 0 0 0 0 0 0 0 0 0 0 0 0 0 0 0 0 0 0
0 0 0 0 0 0 0 0 0 0 0 0 0 0 0 0 0 0 0 0 0 0 0 0 0 0 0 0 0 0 0 0 0 0 0 0 0 0 0 0 0 0 0 0
0 0 0 0 0 0 0 0 0 0 0 0 0 0 0 0 0 0 0 0 0 0 0 0 0 0 -0 0 0 0 0 0 0 0 0 0 0 0 0 0 0 0 0 0
0 0 0 0 0 0 0 0 0 0 0 0 0 0 0 0 0 0 0 0 0 0 0 0 0 0 0 0 0 0 0 0 0 0 0 0 0 0 0 0 0 0 0 0
0 0 0 0 0 0 0 0 0 0 0 0 0 0 0 0 0 0 0 0 0 0 0 0 0 0 0 0 0 0 0 0 0 0 0 0 0 0 0 0 0 0 0 0
0 0 0 0 0 0 0 0 0 0 0 0 0 0 0 0 0 0 0 0 0 0 0 0 0 0 0 0 0 0 0 0 0 0 0 0 0 0 0 0 0 0 0 0
0 0 0 0 0 0 0 0 0 0 0 0 0 0 0 0 0 0 0 0 0 0 0 0 0 0 0 0 0 0 0 0 0 0 0 0 0 0 0 0 0 0 0 0
0 0 0 0 0 0 0 0 0 0 0 0 0 0 0 0 0 0 0 0 0 0 0 0 0 0 0 0 0 0 0 0 0 0 0 0 0 0 0 0 0 0 0 0
0 0 0 0 0 0 0 0 0 0 0 0 0 0 0 0 0 0 0 0 0 0 0 0 0 0 0 0 0 0 0 0 0 0 0 0 0 0 0 0 0 0 0 0
Wind_Speed
2 1 3 4 6 7 6 4 6 8 9 11 13 14 13 13 13 13 12 11 10 9 7 7 7 6 6 6 5 6 6 6 5 4 4 4 4 4 4 4 4 3 4 4
3 3 6 8 8 8 8 7 9 10 6 6 10 10 11 12 13 13 12 11 10 9 8 7 6 6 6 5 5 5 5 5 4 4 3 3 3 3 4 4 3 4 4 3
1 2 5 5 2 4 5 5 7 6 6 12 12 12 12 12 12 13 12 11 10 9 7 6 5 6 5 5 5 5 5 4 3 3 3 2 3 3 3 2 2 3 2 3
2 4 4 1 2 9 10 5 5 8 11 11 11 9 7 9 11 11 11 10 9 8 7 5 4 4 5 5 5 5 4 4 3 3 3 2 3 2 2 1 1 1 1 2
3 3 3 2 3 6 7 4 5 11 12 11 12 9 5 5 8 9 9 8 7 6 6 5 4 4 5 5 5 5 4 3 3 3 3 3 2 1 1 1 1 1 1 2
4 3 2 2 2 8 11 4 5 11 13 13 9 6 5 8 9 10 9 7 7 6 5 4 3 4 5 5 5 4 3 3 3 3 3 2 1 1 1 1 1 1 1 1
4 3 1 1 3 4 3 7 9 10 12 10 5 5 9 12 10 9 9 8 7 6 5 3 4 5 5 4 4 3 3 3 3 3 2 2 1 1 1 2 2 2 1 0
3 3 3 3 2 3 4 6 10 9 9 8 9 12 12 12 11 10 9 7 7 6 4 3 4 5 5 3 3 3 4 3 2 2 1 2 2 2 3 3 3 2 2 2
4 3 3 1 5 5 8 11 7 8 10 13 13 12 12 11 10 9 8 7 6 6 5 4 4 5 5 2 3 4 3 2 1 2 2 3 3 3 3 3 3 2 2 2
5 4 5 7 8 7 9 10 10 12 14 14 13 12 11 10 9 8 7 6 6 6 6 4 3 4 4 3 3 3 2 1 1 2 2 2 2 2 3 2 2 2 2 2
6 6 7 6 9 11 12 13 14 13 12 12 13 12 10 9 8 7 6 5 6 6 6 4 4 3 3 3 3 3 1 0 1 2 2 2 2 1 2 1 2 3 1 1
8 10 8 7 8 14 14 13 14 14 11 10 11 11 9 8 7 7 7 6 6 6 5 4 3 3 2 3 3 3 1 0 1 1 1 2 2 1 2 1 1 2 3 3
9 11 10 11 12 12 13 13 13 13 12 11 9 10 9 7 6 6 7 7 6 6 5 5 4 3 3 3 3 3 2 1 1 1 1 2 2 2 1 2 3 3 4 4
18 16 14 10 12 12 15 14 13 12 11 11 9 9 8 7 7 7 7 6 6 6 5 4 4 3 3 3 3 2 2 1 2 1 1 2 2 2 2 1 1 3 4 5
13 14 15 15 14 14 14 14 14 12 10 9 9 9 8 8 7 6 6 5 5 5 4 4 4 3 3 3 3 3 2 1 1 1 1 1 1 2 2 2 1 1 2 4
14 16 18 18 17 15 15 15 13 11 11 9 9 9 8 8 7 5 5 5 5 4 4 5 4 4 3 4 3 2 2 3 3 2 1 1 2 2 2 2 1 0 1 2
18 17 18 18 17 15 14 13 12 12 11 10 10 9 8 7 6 5 5 5 5 5 5 4 3 2 2 4 4 2 1 1 2 2 2 2 2 2 2 2 1 1 1 2
16 16 17 19 17 15 14 14 13 12 11 10 10 9 8 8 7 6 6 5 4 3 3 4 3 2 2 3 3 2 2 1 2 2 2 2 2 2 2 1 1 0 1 1
15 16 15 15 15 14 13 12 12 12 11 11 10 9 8 7 7 7 6 5 5 4 4 4 4 3 1 1 2 1 2 2 2 3 3 3 3 2 1 1 1 1 0 0
14 16 16 15 14 13 13 13 13 11 10 10 9 8 7 7 7 6 5 5 5 5 5 4 3 1 1 2 1 1 1 3 4 4 3 3 2 2 1 1 1 0 1 1
17 16 16 15 14 13 14 14 13 12 11 10 10 9 8 7 6 6 5 3 4 4 5 5 3 1 1 1 0 0 1 3 4 4 4 3 3 2 1 1 1 1 1 1
16 15 15 15 14 13 12 12 12 12 11 10 9 8 8 6 6 5 5 5 5 6 4 3 3 3 3 1 0 0 2 4 4 4 4 4 3 3 2 2 1 1 1 1
14 13 14 14 14 13 12 11 12 12 11 10 10 9 8 6 5 5 4 4 4 7 5 3 5 5 3 1 0 1 2 5 5 5 4 4 4 3 3 3 2 2 2 2
13 13 13 13 13 13 12 10 10 9 9 9 9 9 8 5 4 4 4 7 9 8 4 5 8 6 3 1 0 0 2 4 5 5 4 4 4 3 3 3 3 3 3 3
13 13 13 15 13 11 11 10 10 8 8 6 7 8 7 6 6 5 5 7 10 8 4 6 8 6 2 1 1 2 3 4 5 5 5 4 4 4 3 3 4 4 3 3
13 12 12 12 10 9 9 8 7 7 6 6 5 5 5 4 6 6 5 7 8 8 5 4 4 4 3 2 2 3 3 4 4 4 5 5 5 5 4 4 5 4 4 4
11 10 9 8 8 9 9 8 8 8 7 7 6 5 6 6 6 6 7 6 6 5 5 4 4 4 4 4 3 3 4 3 4 4 4 4 4 4 5 5 4 4 4 4
Wind_Direction
213 160 102 90 63 60 77 123 141 149 149 161 156 149 143 139 135 131 127 124 121 116 112 109 107 105 107 106 102 100 96 94 94 91 83 77 71 65 64 68 84 85 80 67
31 76 89 77 72 73 74 87 111 120 117 135 131 132 139 143 142 137 134 131 126 122 117 115 114 112 111 112 113 111 109 109 105 96 87 80 73 65 60 58 63 71 76 77
66 93 79 48 38 84 90 110 137 148 146 139 140 148 151 149 147 144 141 136 132 127 121 117 116 115 117 122 117 115 118 117 113 108 96 87 83 73 64 57 67 78 84 84
86 57 67 264 108 110 96 70 95 111 130 140 137 130 132 143 144 141 138 134 130 126 121 118 116 120 121 118 119 120 120 120 123 118 109 98 80 68 54 60 78 94 103 104
104 94 117 151 156 141 114 85 113 125 127 120 116 102 101 127 133 135 133 130 127 125 121 114 108 110 107 105 107 109 112 113 116 113 112 99 81 62 52 68 59 96 127 127
116 123 173 213 136 126 103 119 157 140 142 142 136 140 162 146 131 128 126 126 126 122 113 110 109 106 105 109 110 115 122 116 106 103 108 107 105 80 52 81 88 100 115 146
114 113 157 257 171 140 131 191 165 154 152 154 156 154 141 136 132 133 132 131 128 123 118 120 116 107 113 116 128 140 128 112 94 99 119 119 89 54 56 61 56 56 71 52
107 116 226 305 78 141 173 130 137 140 145 135 118 118 125 131 134 136 133 131 129 124 118 113 113 109 111 124 147 131 113 103 98 94 99 99 82 52 49 60 60 50 53 23
131 175 230 49 106 117 118 118 122 128 130 128 124 128 129 132 135 134 133 133 127 123 115 108 110 116 123 145 136 117 104 106 104 86 76 91 97 81 59 57 64 52 57 47
91 105 100 95 96 96 107 113 118 126 129 129 127 129 128 130 131 132 133 134 129 126 124 129 133 131 146 153 133 120 123 146 133 112 86 77 84 97 95 84 78 68 63 50
102 130 101 96 114 115 109 111 116 120 122 125 126 129 130 132 134 136 134 132 132 135 139 147 151 154 163 158 136 126 141 153 116 135 136 116 98 110 128 160 170 153 162 171
178 179 146 149 138 127 122 124 127 124 116 121 126 129 129 131 133 133 133 132 134 138 144 157 163 167 175 160 138 130 118 50 124 156 152 152 141 62 31 162 169 168 190 201
142 138 127 131 130 126 125 128 128 126 128 127 125 128 126 127 130 131 135 142 149 157 164 170 168 175 188 172 152 147 161 185 161 163 166 173 173 164 210 321 306 285 273 272
124 120 119 128 132 128 127 125 123 121 124 126 127 127 125 124 129 135 147 158 160 160 166 172 172 185 196 173 157 156 161 171 162 177 186 183 188 187 183 195 288 308 304 294
125 127 130 129 126 127 127 126 126 127 128 127 129 130 130 133 142 152 159 158 151 155 166 164 165 194 200 161 157 167 168 179 171 172 158 158 162 151 158 176 193 270 322 330
121 121 126 132 135 135 135 136 137 138 138 135 137 139 141 143 147 150 149 143 139 153 164 163 181 208 191 162 158 162 190 198 168 138 118 105 112 119 123 135 147 177 287 299
135 141 142 143 144 144 145 145 144 144 143 143 147 145 141 139 138 142 149 151 153 161 162 162 186 197 169 169 168 180 200 214 169 128 135 140 131 127 130 134 155 202 261 269
148 148 150 150 149 148 147 146 145 145 147 151 147 142 143 146 154 164 168 157 142 148 172 177 168 136 128 153 167 178 183 187 162 154 148 140 140 140 135 141 175 217 288 324
139 141 144 146 148 147 147 147 148 148 148 148 148 151 156 161 166 171 167 155 157 177 213 208 170 140 178 215 165 161 168 168 154 151 149 143 136 145 147 150 183 233 239 7
142 144 144 145 146 146 146 148 147 148 150 150 150 152 158 168 167 166 162 175 196 200 199 192 170 168 255 264 214 165 179 168 163 157 152 148 153 164 169 179 197 175 126 127
148 149 148 149 148 148 149 150 150 152 154 154 156 162 169 173 169 158 153 183 227 196 179 181 172 198 207 219 152 125 163 158 156 156 158 163 168 176 183 186 168 151 140 125
151 149 150 149 148 148 150 150 151 152 154 158 162 162 162 169 171 167 178 187 194 178 168 176 186 195 187 165 86 50 169 161 158 158 161 167 173 181 190 188 178 173 157 149
150 149 149 150 150 149 148 151 154 156 159 164 165 166 169 174 168 161 188 206 175 174 168 184 195 192 176 144 45 36 159 161 164 169 173 177 183 185 188 189 186 174 163 159
147 148 148 146 144 147 153 158 157 159 162 164 171 173 168 167 183 197 182 175 175 173 175 191 192 192 175 172 246 184 180 175 170 173 178 180 185 184 183 182 179 179 174 167
147 145 147 149 153 159 159 156 154 159 161 166 177 180 175 170 174 186 172 169 174 171 178 198 201 198 188 203 214 194 182 180 174 171 173 177 183 184 184 181 178 177 178 177
150 153 157 159 158 157 158 157 160 165 165 168 179 182 174 166 162 159 162 170 175 179 183 197 202 199 197 208 214 188 178 171 166 170 175 175 178 178 182 185 181 181 183 184
146 146 148 150 155 158 159 162 165 171 172 171 178 181 171 160 160 166 168 172 178 188 196 202 202 198 199 206 211 205 198 189 180 176 175 175 177 183 187 184 182 182 182 183